TimeCST,TemperatureF,Dew PointF,Humidity,Sea Level PressureIn,VisibilityMPH,Wind Direction,Wind SpeedMPH,Gust SpeedMPH,PrecipitationIn,Events,Conditions,WindDirDegrees,DateUTC
12:53 AM,52.0,46.9,83,30.11,10.0,North,3.5,-,N/A,,Partly Cloudy,10,2014-02-18 06:53:00
1:53 AM,48.9,46.0,90,30.11,9.0,Calm,Calm,-,N/A,,Clear,0,2014-02-18 07:53:00
2:53 AM,48.9,42.1,77,30.11,10.0,NE,5.8,-,N/A,,Partly Cloudy,40,2014-02-18 08:53:00
3:53 AM,54.0,43.0,66,30.10,10.0,NE,6.9,-,N/A,,Overcast,50,2014-02-18 09:53:00
4:53 AM,53.1,39.9,61,30.09,10.0,ENE,3.5,-,N/A,,Clear,70,2014-02-18 10:53:00
5:53 AM,52.0,39.9,63,30.10,10.0,ENE,3.5,-,N/A,,Partly Cloudy,70,2014-02-18 11:53:00
6:53 AM,54.0,42.1,64,30.10,10.0,East,3.5,-,N/A,,Overcast,90,2014-02-18 12:53:00
7:49 AM,55.4,42.8,63,30.10,10.0,East,5.8,-,N/A,,Mostly Cloudy,80,2014-02-18 13:49:00
7:53 AM,55.9,43.0,62,30.10,10.0,East,4.6,-,N/A,,Overcast,90,2014-02-18 13:53:00
8:04 AM,55.4,44.6,67,30.10,10.0,East,5.8,-,N/A,,Overcast,100,2014-02-18 14:04:00
8:53 AM,57.9,48.9,72,30.12,10.0,Calm,Calm,-,N/A,,Overcast,0,2014-02-18 14:53:00
9:22 AM,59.0,51.8,77,30.11,9.0,SE,4.6,-,N/A,,Overcast,140,2014-02-18 15:22:00
9:44 AM,60.8,53.6,77,30.12,9.0,SSE,3.5,-,N/A,,Overcast,150,2014-02-18 15:44:00
9:53 AM,61.0,54.0,78,30.12,9.0,SSE,5.8,-,N/A,,Mostly Cloudy,160,2014-02-18 15:53:00
10:53 AM,62.1,57.9,86,30.11,8.0,Variable,3.5,-,0.00,Rain,Light Rain,0,2014-02-18 16:53:00
11:53 AM,64.9,60.1,84,30.09,7.0,South,8.1,-,0.00,,Overcast,180,2014-02-18 17:53:00
12:27 PM,69.8,62.6,78,30.06,9.0,SSW,6.9,-,N/A,,Overcast,200,2014-02-18 18:27:00
12:36 PM,69.8,62.6,78,30.05,10.0,SSW,10.4,-,N/A,,Overcast,200,2014-02-18 18:36:00
12:53 PM,72.0,62.1,71,30.05,10.0,SW,9.2,-,N/A,,Mostly Cloudy,220,2014-02-18 18:53:00
1:08 PM,71.6,62.6,73,30.04,10.0,SSW,11.5,-,N/A,,Mostly Cloudy,210,2014-02-18 19:08:00
1:53 PM,73.0,61.0,66,30.01,10.0,SSW,9.2,23.0,N/A,,Mostly Cloudy,200,2014-02-18 19:53:00
2:53 PM,73.9,61.0,64,29.99,10.0,South,12.7,19.6,N/A,,Mostly Cloudy,190,2014-02-18 20:53:00
3:53 PM,73.0,59.0,61,29.97,10.0,SSW,12.7,-,N/A,,Mostly Cloudy,200,2014-02-18 21:53:00
4:53 PM,73.0,59.0,61,29.96,10.0,SSW,9.2,19.6,N/A,,Overcast,200,2014-02-18 22:53:00
5:53 PM,70.0,59.0,68,29.96,10.0,South,5.8,-,N/A,,Overcast,180,2014-02-18 23:53:00
6:53 PM,69.1,59.0,70,29.96,10.0,South,8.1,-,N/A,,Mostly Cloudy,190,2014-02-19 00:53:00
7:53 PM,68.0,59.0,73,29.95,10.0,South,6.9,-,N/A,,Clear,180,2014-02-19 01:53:00
8:53 PM,68.0,60.1,76,29.97,10.0,South,10.4,17.3,N/A,,Partly Cloudy,190,2014-02-19 02:53:00
9:53 PM,66.9,60.1,79,29.97,10.0,SSW,11.5,-,N/A,,Clear,200,2014-02-19 03:53:00
10:53 PM,64.9,60.1,84,29.99,10.0,SSW,10.4,-,N/A,,Clear,200,2014-02-19 04:53:00
11:53 PM,64.9,60.1,84,30.00,10.0,SSW,8.1,-,N/A,,Overcast,200,2014-02-19 05:53:00